Погода в Юсте

Погода в Юсте : погода сейчас, прогноз погоды и архив. Всё, что Вы хотите узнать о погоде в Юсте!

Хотите узнать прогноз погоды в Юсте? Тогда Вам сюда: Погода в Юсте

Поиск расширенной информации на нашем сайте:

Другие новости

Новости СМИ2

Главная страница сайта

Новости сайта

03.07.2017

Напоминаем, что на нашем специализированном сайте Метеоцентр.Азия вы можете получить высокодетализированные автоматические прогнозы погоды по пунктам России, СНГ и мира в авиационном формате (включающие направление и скорость ветра, видимость, явления погоды, количество и форму облачности, нижнюю и верхнюю границу облачности).

Рекомендуем: Мебель для гостиной мебель в гостиную.

Погода в Юсте - сегодня

Время (UTC), дата Ветер
(°,м/с) 
Видим.   Явления Облачность Т
(°С)
Тd
(°С)
f(%) Тe
(°С)
Pmin
(гПа)
dP
(гПа)
Po
(мм)
O2
(г/м3)
Тmin Tmax R s Состояние
почвы
15 17.10.17 290 (З) 5{13}  10 км    10/10 300 м 
[Sc]
+8.6 +2.4 65 +7  1015.3  761  297    +10.6       
18 17.10.17 250 (З) 10 км    10/10 300 м 
[Sc]
+7.8 +3.5 74 +8  1015.7  0.5  762  298           
21 17.10.17 270 (З) 10 км    10/10 300 м 
[Sc]
+8.5 +4.6 76 +8  1015.9  0.2  762  297           
00 18.10.17 290 (З) 10 км    10/10 300 м 
[Sc]
+9.3 +6.1 80 +8  1017.1  1.1  763  296           
03 18.10.17 310 (СЗ) 20000 м    10/10 300 м 
[Sc]
+10.2 +7.4 83 +9  1019.3  2.2  764  296  +7.7        влажная 
06 18.10.17 320 (СЗ) 20000 м    9/9 300 м 
[Sc]
+10.6 +5.6 71 +10  1022.1  2.8  766  296           
09 18.10.17 290 (З) 20000 м    ясно 
+12.6 +4.3 57 +12  1022.6  0.5  767  295           
12 18.10.17 280 (З) 20000 м    ясно 
+14 +1.9 44 +14  1022.3  -0.3  766  294           
15 18.10.17 230 (ЮЗ) 10 км    ясно 
+10.4 +4.6 67 +10  1022.4  0.2  767  297    +14       
18 18.10.17 230 (ЮЗ) 10 км    ясно 
+7.3 +5.4 88 +7  1022.7  0.2  767  300           
21 18.10.17 230 (ЮЗ) 10 км    ясно 
+7.4 +6.1 91 +7  1021.8  -0.9  766  300           
00 19.10.17 220 (ЮЗ) 10 км    ясно 
+6.8 +5.5 91 +5  1021.4  -0.4  766  300           
03 19.10.17 220 (ЮЗ) 20000 м    ясно 
+7 +5.7 91 +6  1021  -0.4  765  300  +6.6         
06 19.10.17 220 (ЮЗ) 20000 м    ясно 
+10 +8 87 +10  1021.3  0.3  766  296           
09 19.10.17 230 (ЮЗ) 20000 м    9/9 600 м 
[Sc]
+12.5 +11.2 92 +14  1020.3  -1  765  293           
12 19.10.17 240 (ЮЗ) 20000 м    ясно 
+16.5 +10.7 69 +19  1019.2  -1.1  764  288           
15 19.10.17 210 (ЮЗ) 10 км    ясно 
+12.9 +9.5 80 +13  1018.8  -0.4  764  292    +17       
18 19.10.17 240 (ЮЗ) 10 км    ясно 
+10.8 +9.5 92 +10  1018.7  -0.1  764  294           
21 19.10.17 240 (ЮЗ) 10 км    ясно 
+8.8 +8 95 +8  1017.9  -0.8  763  297           
00 20.10.17 240 (ЮЗ) 10 км    ясно 
+7.6 +7.1 97 +7  1017.1  -0.8  763  298           
03 20.10.17 240 (ЮЗ) 20000 м    3/0 верхняя 
[Ci fib]
+7.4 +6.8 96 +7  1017.1  763  298  +7.1         
06 20.10.17 290 (З) 0500 м  туман  ?/?  
+9.8 +9.4 97 +9  1018  0.9  763  295  +6.8         
09 20.10.17 280 (З) 4000 м  дымка{туман}  10/10 300 м 
[St]
+11.3 +11.1 99 +12  1017.9  0.1  763  293           
12 20.10.17 320 (СЗ) 4000 м  дымка{туман}  10/10 300 м 
[St]
+13.4 +11.4 88 +16  1017.8  -0.1  763  291           
15 20.10.17 340 (С) 4000 м  дымка  10/10 300 м 
[St]
+13 +11.3 89 +17  1018.3  0.5  763  292    +13.6  0.0     
Время (UTC), дата Ветер
(°,м/с) 
Видим.   Явления Облачность Т
(°С)
Тd
(°С)
f(%) Тe
(°С)
Pmin
(гПа)
dP
(гПа)
Po
(мм)
O2
(г/м3)
Тmin Tmax R s Состояние
почвы

Для получения пояснительной информации подведите курсор к названию столбца.

ПОГОДА в Юсте - архив

Всё, что Вы хотите узнать о погоде в Юсте - удобно и подробно!

Выберите нужную дату (начиная с 1 января 2015* года) и нажмите кнопку "Найти".
Будут отображены архивные сводки погоды по пункту Юста, начиная с указанной даты.


Отображать данные в формате CSV (для использования в таблицах Excel)


Внимание! Наш архив погоды предназначен исключительно для личного некоммерческого использования в познавательных целях. Если Вам необходимы официальные справки о состоянии погоды (для производственных, юридических, коммерческих и т.п. целей), обращайтесь в органы Росгидромета.

*Примечание: данная дата относится к архиву по метеостанциям СССР (Россия, СНГ, Балтия).
Архив по метеостанциям Зарубежной Европы и Азии (кроме Китая) хранится 10 дней, по другим регионам земного шара (Китай, Африка, Америка, Австралия, Океания) - 1 день.

Юста - район местоположения метеостанции


Название, широта, долгота, высота метеостанции:
Юста 47.1°ш. 46.3°д. 2 м над ур. моря [Российская Федерация]

Дополнительная информация

В oтличие oт бoльшинства пoгoдных сайтoв мы публикуем пoдрoбную метеoинфoрмацию в детальнoм прoфессиoнальнoм фoрмате.

Характеристики температуры и влажнoсти вoздуха измеряются на высoте 2 м в тени вдали oт зданий и деревьев.
Скoрoсть ветра измеряется на высoте 10 м (на урoвне рoста челoвека скoрoсть ветра ниже в 1.5-2 раза). Если метеoстанция нахoдится в гoрoде или в лесу, тo скoрoсть ветра занижена на 2-4 м/с пo сравнению с oткрытым местoм. Скoрoсть ветра над акватoриями крупных рек и oзёр, а также на вершинах хoлмoв на 2-5 м/с выше, чем в oбычных услoвиях.
Атмoсфернoе давление в разных тoчках местнoсти мoжет значительнo oтличаться oт давления на метеoстанции, в зависимoсти oт услoвий рельефа (при пoдъёме на 10 м давление пoнижается примернo на 1 мм рт.ст.).